GW0876 Weather Reports


time (UTC)temp
F
wind
direction
speed
knots
gust
knots
rain 1hr
in
rain 24hr
in
rain mn
in
humidity
%
barometer
mb
20260905223437 56 356 0.9 2.6 0.04 0.09 0.03 82 1018.4
20260905222437 56 321 0.0 2.6 0.04 0.09 0.03 82 1018.4
20260905221438 57 309 0.0 3.5 0.04 0.09 0.03 78 1018.4
20260905220437 60 204 0.9 2.6 0.01 0.09 0.00 71 1018.3
20260905215437 62 98 0.9 3.5 0.00 0.08 0.08 66 1018.1
20260905214437 63 32 0.0 4.3 0.00 0.08 0.08 61 1018.5
20260905213437 63 65 3.5 5.2 0.00 0.08 0.08 60 1017.8
20260905212436 62 284 0.0 2.6 0.00 0.08 0.08 62 1017.6
20260905211912 62 62 0.0 1.7 0.00 0.08 0.08 63 1017.3
20260905210437 62 263 0.0 0.9 0.00 0.08 0.08 64 1017.6
20260905210357 62 135 0.0 0.9 0.00 0.08 0.08 64 1017.3
20260905204850 62 297 0.0 0.9 0.00 0.08 0.08 63 1017.5
20260905204622 62 94 0.0 0.9 0.00 0.08 0.08 63 1017.4
20260905202437 62 135 0.0 0.9 0.00 0.08 0.08 63 1017.4
20260905201437 62 299 0.0 1.7 0.00 0.08 0.08 63 1017.4
20260905200437 62 242 0.0 1.7 0.00 0.08 0.08 62 1017.3
20260905195436 62 26 0.0 0.9 0.00 0.08 0.08 61 1017.4
20260905194912 63 96 0.0 2.6 0.00 0.08 0.08 61 1017.2
20260905194358 62 62 0.0 1.7 0.00 0.08 0.08 61 1017.2
20260905192437 62 66 0.0 1.7 0.00 0.08 0.08 61 1017.1
20260905191437 62 89 0.9 1.7 0.00 0.08 0.08 61 1017.3
20260905190436 62 259 0.0 1.7 0.00 0.08 0.08 61 1017.0
20260905185437 63 261 0.0 1.7 0.00 0.08 0.08 60 1016.9
20260905184440 63 44 0.0 1.7 0.00 0.08 0.08 60 1016.7
20260905183438 63 256 0.0 1.7 0.00 0.08 0.08 60 1016.7
20260905182437 63 239 0.0 1.7 0.00 0.08 0.08 60 1016.8
20260905181439 63 297 0.0 0.9 0.00 0.08 0.08 60 1016.7
20260905180436 63 250 0.0 0.0 0.00 0.08 0.08 60 1016.6
20260905175437 64 95 0.0 0.0 0.00 0.08 0.08 59 1016.8
20260905174437 64 82 0.0 0.9 0.00 0.08 0.08 58 1016.8
20260905174352 65 108 0.0 0.9 0.00 0.08 0.08 56 1016.6
20260905172437 65 242 0.0 0.9 0.00 0.08 0.08 55 1016.7
20260905171437 66 97 0.0 1.7 0.00 0.08 0.08 55 1016.6
20260905170915 66 215 0.0 0.9 0.00 0.08 0.08 54 1016.6
20260905165438 67 288 0.0 0.9 0.00 0.08 0.08 52 1016.4
20260905164437 68 244 0.0 1.7 0.00 0.08 0.08 50 1016.3
20260905163437 68 262 0.0 2.6 0.00 0.08 0.08 49 1016.5
20260905162437 69 234 0.0 2.6 0.00 0.08 0.08 48 1016.3
20260905161921 69 272 2.6 2.6 0.00 0.08 0.08 48 1016.4
20260905160436 70 107 1.7 1.7 0.00 0.08 0.08 47 1016.0
20260905155920 71 77 0.0 2.6 0.00 0.08 0.08 46 1015.9
20260905154437 70 210 0.9 5.2 0.00 0.08 0.08 45 1015.9
20260905153919 72 31 0.0 2.6 0.00 0.08 0.08 45 1015.7
20260905152437 71 279 0.0 4.3 0.00 0.08 0.08 44 1015.7
20260905151436 71 97 0.9 3.5 0.00 0.08 0.08 44 1015.9
20260905150437 73 71 0.9 4.3 0.00 0.08 0.08 43 1015.9
20260905145438 73 302 1.7 4.3 0.00 0.08 0.08 42 1015.8
20260905144437 73 280 2.6 5.2 0.00 0.08 0.08 43 1015.9
20260905143437 74 271 3.5 5.2 0.00 0.08 0.08 42 1015.6
20260905142437 74 37 1.7 5.2 0.00 0.08 0.08 43 1015.8
20260905141437 74 272 1.7 5.2 0.00 0.08 0.08 43 1015.7
20260905140437 74 289 3.5 5.2 0.00 0.08 0.08 42 1015.6
20260905135437 75 242 2.6 8.7 0.00 0.08 0.08 40 1015.5
20260905134437 75 260 0.9 6.1 0.00 0.08 0.08 43 1015.4
20260905133437 74 278 1.7 5.2 0.00 0.08 0.08 43 1015.5
20260905132438 73 176 2.6 4.3 0.00 0.08 0.08 45 1015.3
20260905131437 74 221 1.7 5.2 0.00 0.08 0.08 43 1015.3
20260905130842 72 291 1.7 5.2 0.00 0.08 0.08 45 1015.4
20260905130619 74 96 1.7 5.2 0.00 0.08 0.08 44 1015.2
20260905124437 74 304 3.5 6.1 0.00 0.08 0.08 44 1015.6
20260905123924 71 230 1.7 5.2 0.00 0.08 0.08 47 1015.6
20260905122437 70 189 1.7 6.1 0.00 0.08 0.08 49 1015.7
20260905121437 70 156 1.7 4.3 0.00 0.08 0.08 50 1015.7
20260905120437 69 271 1.7 3.5 0.00 0.08 0.08 53 1015.8
20260905115437 68 200 0.0 3.5 0.00 0.08 0.08 55 1015.9
20260905114915 69 76 1.7 2.6 0.00 0.08 0.08 54 1015.6
20260905113437 69 256 0.0 5.2 0.00 0.08 0.08 55 1015.9
20260905112437 67 279 0.9 3.5 0.00 0.08 0.08 54 1015.7
20260905111922 67 263 0.9 6.1 0.00 0.08 0.08 57 1015.9
20260905110438 67 317 5.2 5.2 0.00 0.08 0.08 55 1015.9
20260905105437 67 268 3.5 6.1 0.00 0.08 0.08 57 1016.0
20260905104922 67 88 1.7 4.3 0.00 0.08 0.08 59 1015.9
20260905103437 69 327 3.5 3.5 0.00 0.08 0.08 57 1015.7
20260905102918 65 327 1.7 4.3 0.00 0.08 0.08 61 1015.9
20260905101437 66 243 1.7 4.3 0.00 0.08 0.08 62 1015.6
20260905100437 66 228 0.9 5.2 0.00 0.08 0.08 63 1015.6
20260905095922 67 275 1.7 4.3 0.00 0.08 0.08 62 1015.4
20260905094436 66 282 1.7 6.1 0.00 0.08 0.08 64 1015.4
20260905093437 67 49 1.7 5.2 0.00 0.08 0.08 63 1015.5
20260905092437 66 87 1.7 5.2 0.00 0.08 0.08 63 1015.5
20260905091437 66 290 4.3 4.3 0.00 0.08 0.08 66 1015.6
20260905090439 66 280 1.7 4.3 0.00 0.08 0.08 68 1015.5
20260905085916 65 265 3.5 5.2 0.00 0.08 0.08 69 1015.4
20260905084436 64 354 1.7 5.2 0.00 0.08 0.08 71 1015.6
20260905083913 64 292 1.7 4.3 0.00 0.08 0.08 72 1015.5
20260905082437 63 276 2.6 3.5 0.00 0.08 0.08 73 1015.4
20260905081442 63 286 1.7 3.5 0.00 0.08 0.08 74 1015.3
20260905080437 63 260 1.7 6.1 0.00 0.08 0.08 74 1015.5
20260905075437 63 310 1.7 4.3 0.00 0.08 0.08 73 1015.1
20260905074437 63 6 0.0 5.2 0.00 0.08 0.08 74 1015.2
20260905073910 64 319 0.9 4.3 0.00 0.08 0.08 72 1014.9
20260905072436 63 275 2.6 4.3 0.00 0.08 0.08 73 1014.9
20260905071437 63 265 1.7 7.8 0.00 0.08 0.08 73 1014.7
20260905070438 63 299 1.7 3.5 0.00 0.08 0.08 75 1014.3
20260905065927 63 22 0.0 7.0 0.00 0.08 0.08 76 1014.7
20260905064437 63 280 3.5 5.2 0.01 0.08 0.08 77 1014.3
20260905063437 62 268 2.6 3.5 0.01 0.08 0.08 78 1014.3
20260905062437 62 305 1.7 4.3 0.01 0.08 0.08 78 1014.2
20260905061437 62 244 0.0 3.5 0.02 0.08 0.08 79 1014.0
20260905060437 62 309 0.9 4.3 0.02 0.08 0.08 80 1013.6
20260905055916 62 40 0.0 3.5 0.02 0.06 0.08 79 1013.7
20260905054437 62 147 0.0 2.6 0.02 0.06 0.07 80 1013.9
20260905053436 62 173 0.9 3.5 0.02 0.06 0.07 80 1013.4
20260905052436 62 271 1.7 4.3 0.02 0.06 0.07 80 1013.4
20260905051439 62 22 1.7 4.3 0.02 0.06 0.07 78 1013.5
20260905050436 62 283 4.3 5.2 0.01 0.06 0.06 78 1013.5
20260905045436 63 206 0.0 4.3 0.01 0.05 0.06 76 1013.2
20260905044919 63 304 0.9 4.3 0.00 0.05 0.05 75 1013.4
20260905043437 63 267 1.7 5.2 0.00 0.05 0.05 75 1013.0
20260905042437 63 21 0.9 6.1 0.00 0.05 0.05 75 1012.5
20260905041437 63 291 2.6 5.2 0.00 0.05 0.05 75 1013.1
20260905040437 62 243 0.9 3.5 0.01 0.05 0.05 76 1012.5
20260905035828 62 288 2.6 5.2 0.01 0.04 0.05 78 1012.3
20260905035611 62 187 0.0 4.3 0.01 0.04 0.05 77 1012.4
20260905033437 61 102 0.0 3.5 0.01 0.04 0.05 80 1012.1
20260905032437 61 289 1.7 2.6 0.02 0.04 0.05 82 1012.3
20260905031437 60 282 0.9 2.6 0.02 0.04 0.04 82 1012.4
20260905030437 60 132 0.0 3.5 0.03 0.04 0.04 81 1012.4
20260905025437 60 279 3.5 4.3 0.03 0.02 0.04 82 1012.4
20260905024919 60 265 0.9 5.2 0.04 0.02 0.04 83 1012.0
20260905023437 60 257 0.9 5.2 0.04 0.02 0.04 82 1012.1
20260905022437 61 266 0.0 4.3 0.03 0.02 0.03 82 1012.3
20260905021437 62 313 2.6 5.2 0.03 0.02 0.03 79 1012.1
20260905020436 63 262 0.9 5.2 0.02 0.02 0.02 76 1012.0
20260905015437 65 193 1.7 5.2 0.01 0.00 0.01 70 1012.4
20260905014436 66 325 2.6 5.2 0.00 0.00 0.00 68 1011.7
20260905013437 67 178 1.7 4.3 0.00 0.00 0.00 66 1011.3
20260905012437 67 169 0.0 6.1 0.00 0.00 0.00 65 1011.4
20260905011437 67 77 1.7 6.1 0.00 0.00 0.00 65 1011.0
20260905010919 68 17 3.5 6.1 0.00 0.00 0.00 63 1011.1
20260905005437 68 278 1.7 7.0 0.00 0.00 0.00 66 1010.9
20260905004436 69 320 0.0 6.1 0.00 0.00 0.00 66 1010.5
20260905003437 69 323 0.9 4.3 0.00 0.00 0.00 66 1010.4
20260905002436 69 344 1.7 3.5 0.00 0.00 0.00 67 1010.3
20260905001437 69 121 0.0 2.6 0.00 0.00 0.00 67 1009.8
20260905000439 70 239 0.0 3.5 0.00 0.00 0.00 67 1009.8
20260904235437 70 293 0.0 3.5 0.00 0.00 0.00 67 1009.4
20260904234437 71 100 1.7 3.5 0.00 0.00 0.00 69 1009.6
20260904233436 71 54 0.0 2.6 0.00 0.00 0.00 68 1009.2
20260904232437 71 242 0.9 2.6 0.00 0.00 0.00 66 1009.3
20260904232352 71 177 0.0 2.6 0.00 0.00 0.00 65 1009.3
20260904230442 72 121 0.0 1.7 0.00 0.00 0.00 65 1008.9
20260904225437 72 285 1.7 3.5 0.00 0.00 0.00 64 1008.9
20260904224437 72 138 1.7 3.5 0.00 0.00 0.00 64 1008.9